"datetime","temp","dp","rain_mm","uv","solar","mb","wind_mph","gust_mph","windchill","rh"
"2021-08-15 00:00:00",15.1,14.1,0.0,0.0,0,1015.8,1,3,"",94
"2021-08-15 00:01:00",15.1,14.1,0.0,0.0,0,1015.8,0,0,"",94
"2021-08-15 00:02:00",15.1,14.1,0.0,0.0,0,1015.8,0,0,"",94
"2021-08-15 00:03:00",15.1,14.1,0.0,0.0,0,1015.8,0,1,"",94
"2021-08-15 00:04:00",15.1,14.0,0.0,0.0,0,1015.8,1,2,"",93
"2021-08-15 00:05:00",15.1,14.0,0.0,0.0,0,1015.8,1,2,"",93
"2021-08-15 00:06:00",15.1,14.1,0.0,0.0,0,1015.7,1,3,"",94
"2021-08-15 00:07:00",15.1,14.0,0.0,0.0,0,1015.7,1,2,"",93
"2021-08-15 00:08:00",15.1,14.1,0.0,0.0,0,1015.7,1,3,"",94
"2021-08-15 00:09:00",15.2,14.2,0.0,0.0,0,1015.8,1,3,"",94
"2021-08-15 00:10:00",15.2,14.1,0.0,0.0,0,1015.8,1,2,"",93
"2021-08-15 00:11:00",15.2,14.2,0.0,0.0,0,1015.8,1,2,"",94
"2021-08-15 00:12:00",15.2,14.2,0.0,0.0,0,1015.8,1,2,"",94
"2021-08-15 00:13:00",15.2,14.2,0.0,0.0,0,1015.8,1,3,"",94
"2021-08-15 00:14:00",15.2,14.2,0.0,0.0,0,1015.7,2,3,"",94
"2021-08-15 00:15:00",15.2,14.1,0.0,0.0,0,1015.8,1,1,"",93
"2021-08-15 00:16:00",15.2,14.1,0.0,0.0,0,1015.8,1,1,"",93
"2021-08-15 00:17:00",15.2,14.1,0.0,0.0,0,1015.8,1,1,"",93
"2021-08-15 00:18:00",15.2,14.1,0.0,0.0,0,1015.8,0,1,"",93
"2021-08-15 00:19:00",15.2,14.1,0.0,0.0,0,1015.8,0,2,"",93
"2021-08-15 00:20:00",15.2,14.1,0.0,0.0,0,1015.7,1,3,"",93
"2021-08-15 00:21:00",15.2,14.1,0.0,0.0,0,1015.7,0,1,"",93
"2021-08-15 00:22:00",15.2,14.1,0.0,0.0,0,1015.7,1,2,"",93
"2021-08-15 00:23:00",15.2,14.1,0.0,0.0,0,1015.7,1,2,"",93
"2021-08-15 00:24:00",15.2,14.1,0.0,0.0,0,1015.8,1,3,"",93
"2021-08-15 00:25:00",15.3,14.2,0.0,0.0,0,1015.7,1,2,"",93
"2021-08-15 00:26:00",15.3,14.2,0.0,0.0,0,1015.7,1,2,"",93
"2021-08-15 00:27:00",15.3,14.2,0.0,0.0,0,1015.7,1,2,"",93
"2021-08-15 00:28:00",15.3,14.2,0.0,0.0,0,1015.7,0,1,"",93
"2021-08-15 00:29:00",15.3,14.2,0.0,0.0,0,1015.7,0,1,"",93
"2021-08-15 00:30:00",15.4,14.3,0.0,0.0,0,1015.8,0,1,"",93
"2021-08-15 00:31:00",15.4,14.3,0.0,0.0,0,1015.8,0,1,"",93
"2021-08-15 00:32:00",15.4,14.3,0.0,0.0,0,1015.8,0,1,"",93
"2021-08-15 00:33:00",15.4,14.3,0.0,0.0,0,1015.8,0,0,"",93
"2021-08-15 00:34:00",15.4,14.3,0.0,0.0,0,1015.8,0,1,"",93
"2021-08-15 00:35:00",15.4,14.3,0.0,0.0,0,1015.7,1,2,"",93
"2021-08-15 00:36:00",15.4,14.3,0.0,0.0,0,1015.7,1,2,"",93
"2021-08-15 00:37:00",15.4,14.3,0.0,0.0,0,1015.7,0,1,"",93
"2021-08-15 00:38:00",15.4,14.3,0.0,0.0,0,1015.8,0,0,"",93
"2021-08-15 00:39:00",15.4,14.3,0.0,0.0,0,1015.8,1,2,"",93
"2021-08-15 00:40:00",15.4,14.3,0.0,0.0,0,1015.7,1,2,"",93
"2021-08-15 00:41:00",15.4,14.3,0.0,0.0,0,1015.8,1,1,"",93
"2021-08-15 00:42:00",15.4,14.3,0.0,0.0,0,1015.8,0,1,"",93
"2021-08-15 00:43:00",15.4,14.3,0.0,0.0,0,1015.8,0,0,"",93
"2021-08-15 00:44:00",15.4,14.3,0.0,0.0,0,1015.8,0,0,"",93
"2021-08-15 00:45:00",15.3,14.2,0.0,0.0,0,1015.8,0,0,"",93
"2021-08-15 00:46:00",15.3,14.2,0.0,0.0,0,1015.7,0,0,"",93
"2021-08-15 00:47:00",15.4,14.3,0.0,0.0,0,1015.8,0,1,"",93
"2021-08-15 00:48:00",15.4,14.3,0.0,0.0,0,1015.8,1,2,"",93
"2021-08-15 00:49:00",15.4,14.3,0.0,0.0,0,1015.7,1,1,"",93
"2021-08-15 00:50:00",15.4,14.3,0.0,0.0,0,1015.7,0,1,"",93
"2021-08-15 00:51:00",15.4,14.3,0.0,0.0,0,1015.6,0,1,"",93
"2021-08-15 00:52:00",15.3,14.2,0.0,0.0,0,1015.6,0,1,"",93
"2021-08-15 00:53:00",15.4,14.3,0.0,0.0,0,1015.6,0,0,"",93
"2021-08-15 00:54:00",15.3,14.2,0.0,0.0,0,1015.6,0,0,"",93
"2021-08-15 00:55:00",15.3,14.2,0.0,0.0,0,1015.7,0,0,"",93
"2021-08-15 00:56:00",15.3,14.2,0.0,0.0,0,1015.7,0,0,"",93
"2021-08-15 00:57:00",15.3,14.2,0.0,0.0,0,1015.6,0,1,"",93
"2021-08-15 00:58:00",15.3,14.2,0.0,0.0,0,1015.5,0,1,"",93
"2021-08-15 00:59:00",15.3,14.2,0.0,0.0,0,1015.5,0,1,"",93
"2021-08-15 01:00:00",15.3,14.2,0.0,0.0,0,1015.4,0,1,"",93
"2021-08-15 01:01:00",15.2,14.1,0.0,0.0,0,1015.5,0,0,"",93
"2021-08-15 01:02:00",15.2,14.1,0.0,0.0,0,1015.4,0,0,"",93
"2021-08-15 01:03:00",15.2,14.2,0.0,0.0,0,1015.5,0,1,"",94
"2021-08-15 01:04:00",15.2,14.2,0.0,0.0,0,1015.5,0,1,"",94
"2021-08-15 01:05:00",15.3,14.3,0.0,0.0,0,1015.5,0,0,"",94
"2021-08-15 01:06:00",15.2,14.2,0.0,0.0,0,1015.5,0,0,"",94
"2021-08-15 01:07:00",15.3,14.3,0.0,0.0,0,1015.5,0,1,"",94
"2021-08-15 01:08:00",15.3,14.2,0.0,0.0,0,1015.5,0,1,"",93
"2021-08-15 01:09:00",15.3,14.2,0.0,0.0,0,1015.5,0,1,"",93
"2021-08-15 01:10:00",15.3,14.2,0.0,0.0,0,1015.5,0,0,"",93
"2021-08-15 01:11:00",15.2,14.1,0.0,0.0,0,1015.5,0,1,"",93
"2021-08-15 01:12:00",15.2,14.1,0.0,0.0,0,1015.5,0,1,"",93
"2021-08-15 01:13:00",15.2,14.1,0.0,0.0,0,1015.5,0,1,"",93
"2021-08-15 01:14:00",15.2,14.2,0.0,0.0,0,1015.5,0,1,"",94
"2021-08-15 01:15:00",15.3,14.3,0.0,0.0,0,1015.5,1,2,"",94
"2021-08-15 01:16:00",15.3,14.3,0.0,0.0,0,1015.5,0,2,"",94
"2021-08-15 01:17:00",15.3,14.3,0.0,0.0,0,1015.5,0,1,"",94
"2021-08-15 01:18:00",15.3,14.3,0.0,0.0,0,1015.5,0,1,"",94
"2021-08-15 01:19:00",15.3,14.3,0.0,0.0,0,1015.5,0,0,"",94
"2021-08-15 01:20:00",15.3,14.2,0.0,0.0,0,1015.4,0,0,"",93
"2021-08-15 01:21:00",15.3,14.2,0.0,0.0,0,1015.5,0,1,"",93
"2021-08-15 01:22:00",15.3,14.2,0.0,0.0,0,1015.4,0,0,"",93
"2021-08-15 01:23:00",15.3,14.2,0.0,0.0,0,1015.4,0,0,"",93
"2021-08-15 01:24:00",15.2,14.1,0.0,0.0,0,1015.5,0,0,"",93
"2021-08-15 01:25:00",15.3,14.3,0.0,0.0,0,1015.5,0,0,"",94
"2021-08-15 01:26:00",15.2,14.2,0.0,0.0,0,1015.4,0,0,"",94
"2021-08-15 01:27:00",15.2,14.2,0.0,0.0,0,1015.4,0,0,"",94
"2021-08-15 01:28:00",15.1,14.0,0.0,0.0,0,1015.4,0,0,"",93
"2021-08-15 01:29:00",15.1,14.1,0.0,0.0,0,1015.4,0,0,"",94
"2021-08-15 01:30:00",15.1,14.1,0.0,0.0,0,1015.4,0,0,"",94
"2021-08-15 01:31:00",15.1,14.1,0.0,0.0,0,1015.4,0,0,"",94
"2021-08-15 01:32:00",15.1,14.1,0.0,0.0,0,1015.4,0,0,"",94
"2021-08-15 01:33:00",15.0,14.0,0.0,0.0,0,1015.4,0,0,"",94
"2021-08-15 01:34:00",15.0,14.0,0.0,0.0,0,1015.3,0,2,"",94
"2021-08-15 01:35:00",15.0,14.0,0.0,0.0,0,1015.3,0,0,"",94
"2021-08-15 01:36:00",14.9,13.9,0.0,0.0,0,1015.3,0,0,"",94
"2021-08-15 01:37:00",14.9,13.9,0.0,0.0,0,1015.3,0,0,"",94
"2021-08-15 01:38:00",14.9,13.9,0.0,0.0,0,1015.3,0,1,"",94
"2021-08-15 01:39:00",14.9,13.9,0.0,0.0,0,1015.3,0,2,"",94
"2021-08-15 01:40:00",14.9,13.9,0.0,0.0,0,1015.3,0,0,"",94
"2021-08-15 01:41:00",14.9,13.9,0.0,0.0,0,1015.3,0,1,"",94
"2021-08-15 01:42:00",14.8,13.8,0.0,0.0,0,1015.3,0,2,"",94
"2021-08-15 01:43:00",14.8,13.8,0.0,0.0,0,1015.3,0,0,"",94
"2021-08-15 01:44:00",14.9,14.1,0.0,0.0,0,1015.3,0,1,"",95
"2021-08-15 01:45:00",14.9,14.1,0.0,0.0,0,1015.4,0,0,"",95
"2021-08-15 01:46:00",14.9,14.1,0.0,0.0,0,1015.4,0,0,"",95
"2021-08-15 01:47:00",14.9,14.1,0.0,0.0,0,1015.4,0,1,"",95
"2021-08-15 01:48:00",14.9,14.1,0.0,0.0,0,1015.3,0,0,"",95
"2021-08-15 01:49:00",14.9,14.1,0.0,0.0,0,1015.2,0,0,"",95
"2021-08-15 01:50:00",14.9,14.1,0.0,0.0,0,1015.2,0,0,"",95
"2021-08-15 01:51:00",14.9,13.9,0.0,0.0,0,1015.3,0,0,"",94
"2021-08-15 01:52:00",14.9,13.9,0.0,0.0,0,1015.2,0,1,"",94
"2021-08-15 01:53:00",14.9,14.1,0.0,0.0,0,1015.2,1,2,"",95
"2021-08-15 01:54:00",14.9,14.1,0.0,0.0,0,1015.2,0,0,"",95
"2021-08-15 01:55:00",14.9,14.1,0.0,0.0,0,1015.2,0,0,"",95
"2021-08-15 01:56:00",14.9,14.1,0.0,0.0,0,1015.2,0,0,"",95
"2021-08-15 01:57:00",14.9,14.1,0.0,0.0,0,1015.2,0,0,"",95
"2021-08-15 01:58:00",14.8,14.0,0.0,0.0,0,1015.3,0,0,"",95
"2021-08-15 01:59:00",14.8,14.0,0.0,0.0,0,1015.2,0,0,"",95
"2021-08-15 02:00:00",14.9,14.1,0.0,0.0,0,1015.3,0,0,"",95
"2021-08-15 02:01:00",14.9,14.1,0.0,0.0,0,1015.2,0,0,"",95
"2021-08-15 02:02:00",14.9,14.1,0.0,0.0,0,1015.2,0,0,"",95
"2021-08-15 02:03:00",14.8,14.0,0.0,0.0,0,1015.3,0,0,"",95
"2021-08-15 02:04:00",14.8,14.0,0.0,0.0,0,1015.3,0,1,"",95
"2021-08-15 02:05:00",14.8,13.8,0.0,0.0,0,1015.3,0,1,"",94
"2021-08-15 02:06:00",14.7,13.7,0.0,0.0,0,1015.2,0,1,"",94
"2021-08-15 02:07:00",14.7,13.9,0.0,0.0,0,1015.2,1,2,"",95
"2021-08-15 02:08:00",14.7,13.9,0.0,0.0,0,1015.2,0,1,"",95
"2021-08-15 02:09:00",14.7,13.9,0.0,0.0,0,1015.1,0,1,"",95
"2021-08-15 02:10:00",14.7,13.9,0.0,0.0,0,1015.2,0,1,"",95
"2021-08-15 02:11:00",14.6,13.8,0.0,0.0,0,1015.1,0,1,"",95
"2021-08-15 02:12:00",14.6,13.8,0.0,0.0,0,1015.1,1,2,"",95
"2021-08-15 02:13:00",14.6,13.8,0.0,0.0,0,1015.1,0,0,"",95
"2021-08-15 02:14:00",14.6,13.8,0.0,0.0,0,1015.1,0,1,"",95
"2021-08-15 02:15:00",14.6,13.8,0.0,0.0,0,1015.1,1,1,"",95
"2021-08-15 02:16:00",14.6,13.8,0.0,0.0,0,1015.1,0,1,"",95
"2021-08-15 02:17:00",14.6,13.8,0.0,0.0,0,1015.1,0,1,"",95
"2021-08-15 02:18:00",14.6,13.8,0.0,0.0,0,1015.1,0,1,"",95
"2021-08-15 02:19:00",14.5,13.7,0.0,0.0,0,1015.1,0,1,"",95
"2021-08-15 02:20:00",14.5,13.7,0.0,0.0,0,1015.1,0,0,"",95
"2021-08-15 02:21:00",14.5,13.7,0.0,0.0,0,1015.0,0,1,"",95
"2021-08-15 02:22:00",14.4,13.6,0.0,0.0,0,1015.0,0,1,"",95
"2021-08-15 02:23:00",14.4,13.6,0.0,0.0,0,1015.0,1,2,"",95
"2021-08-15 02:24:00",14.4,13.6,0.0,0.0,0,1015.0,1,2,"",95
"2021-08-15 02:25:00",14.4,13.6,0.0,0.0,0,1015.0,0,1,"",95
"2021-08-15 02:26:00",14.4,13.6,0.0,0.0,0,1014.9,1,1,"",95
"2021-08-15 02:27:00",14.4,13.6,0.0,0.0,0,1014.9,0,1,"",95
"2021-08-15 02:28:00",14.4,13.8,0.0,0.0,0,1014.9,0,2,"",96
"2021-08-15 02:29:00",14.4,13.8,0.0,0.0,0,1014.9,0,2,"",96
"2021-08-15 02:30:00",14.4,13.8,0.0,0.0,0,1014.8,0,2,"",96
"2021-08-15 02:31:00",14.4,13.8,0.0,0.0,0,1014.8,0,0,"",96
"2021-08-15 02:32:00",14.4,13.8,0.0,0.0,0,1014.8,1,2,"",96
"2021-08-15 02:33:00",14.4,13.8,0.0,0.0,0,1014.8,0,1,"",96
"2021-08-15 02:34:00",14.5,13.9,0.0,0.0,0,1014.7,0,0,"",96
"2021-08-15 02:35:00",14.5,13.9,0.0,0.0,0,1014.7,0,1,"",96
"2021-08-15 02:36:00",14.5,13.7,0.0,0.0,0,1014.7,0,0,"",95
"2021-08-15 02:37:00",14.4,13.6,0.0,0.0,0,1014.8,0,1,"",95
"2021-08-15 02:38:00",14.4,13.6,0.0,0.0,0,1014.8,0,0,"",95
"2021-08-15 02:39:00",14.4,13.6,0.0,0.0,0,1014.8,0,1,"",95
"2021-08-15 02:40:00",14.4,13.6,0.0,0.0,0,1014.8,0,0,"",95
"2021-08-15 02:41:00",14.4,13.8,0.0,0.0,0,1014.8,0,0,"",96
"2021-08-15 02:42:00",14.4,13.6,0.0,0.0,0,1014.8,0,0,"",95
"2021-08-15 02:43:00",14.3,13.5,0.0,0.0,0,1014.8,0,0,"",95
"2021-08-15 02:44:00",14.3,13.5,0.0,0.0,0,1014.8,0,0,"",95
"2021-08-15 02:45:00",14.3,13.5,0.0,0.0,0,1014.7,0,0,"",95
"2021-08-15 02:46:00",14.2,13.4,0.0,0.0,0,1014.7,0,0,"",95
"2021-08-15 02:47:00",14.2,13.4,0.0,0.0,0,1014.7,0,0,"",95
"2021-08-15 02:48:00",14.2,13.4,0.0,0.0,0,1014.7,0,0,"",95
"2021-08-15 02:49:00",14.2,13.6,0.0,0.0,0,1014.7,0,0,"",96
"2021-08-15 02:50:00",14.2,13.6,0.0,0.0,0,1014.7,0,0,"",96
"2021-08-15 02:51:00",14.2,13.6,0.0,0.0,0,1014.7,0,0,"",96
"2021-08-15 02:52:00",14.2,13.6,0.0,0.0,0,1014.7,0,1,"",96
"2021-08-15 02:53:00",14.2,13.6,0.0,0.0,0,1014.7,0,1,"",96
"2021-08-15 02:54:00",14.2,13.6,0.0,0.0,0,1014.7,0,1,"",96
"2021-08-15 02:55:00",14.2,13.4,0.0,0.0,0,1014.7,0,0,"",95
"2021-08-15 02:56:00",14.1,13.5,0.0,0.0,0,1014.6,0,0,"",96
"2021-08-15 02:57:00",14.1,13.5,0.0,0.0,0,1014.6,0,1,"",96
"2021-08-15 02:58:00",14.1,13.5,0.0,0.0,0,1014.6,0,0,"",96
"2021-08-15 02:59:00",14.1,13.5,0.0,0.0,0,1014.6,0,2,"",96
"2021-08-15 03:00:00",14.1,13.5,0.0,0.0,0,1014.6,0,1,"",96
"2021-08-15 03:01:00",14.1,13.5,0.0,0.0,0,1014.6,0,1,"",96
"2021-08-15 03:02:00",14.1,13.5,0.0,0.0,0,1014.6,0,1,"",96
"2021-08-15 03:03:00",14.1,13.5,0.0,0.0,0,1014.6,0,1,"",96
"2021-08-15 03:04:00",14.1,13.5,0.0,0.0,0,1014.6,0,1,"",96
"2021-08-15 03:05:00",14.1,13.5,0.0,0.0,0,1014.6,0,1,"",96
"2021-08-15 03:06:00",14.1,13.5,0.0,0.0,0,1014.6,1,1,"",96
"2021-08-15 03:07:00",14.1,13.5,0.0,0.0,0,1014.6,0,1,"",96
"2021-08-15 03:08:00",14.1,13.5,0.0,0.0,0,1014.6,0,0,"",96
"2021-08-15 03:09:00",14.1,13.5,0.0,0.0,0,1014.6,0,0,"",96
"2021-08-15 03:10:00",14.1,13.5,0.0,0.0,0,1014.5,0,0,"",96
"2021-08-15 03:11:00",14.1,13.5,0.0,0.0,0,1014.5,0,0,"",96
"2021-08-15 03:12:00",14.1,13.5,0.0,0.0,0,1014.5,0,0,"",96
"2021-08-15 03:13:00",14.0,13.4,0.0,0.0,0,1014.5,0,0,"",96
"2021-08-15 03:14:00",14.0,13.4,0.0,0.0,0,1014.5,0,1,"",96
"2021-08-15 03:15:00",14.1,13.5,0.0,0.0,0,1014.5,0,0,"",96
"2021-08-15 03:16:00",14.1,13.5,0.0,0.0,0,1014.5,0,0,"",96
"2021-08-15 03:17:00",14.1,13.5,0.0,0.0,0,1014.5,0,0,"",96
"2021-08-15 03:18:00",14.1,13.5,0.0,0.0,0,1014.5,0,1,"",96
"2021-08-15 03:19:00",14.1,13.5,0.0,0.0,0,1014.5,0,1,"",96
"2021-08-15 03:20:00",14.1,13.5,0.0,0.0,0,1014.5,0,0,"",96
"2021-08-15 03:21:00",14.1,13.5,0.0,0.0,0,1014.4,0,0,"",96
"2021-08-15 03:22:00",14.1,13.5,0.0,0.0,0,1014.5,0,0,"",96
"2021-08-15 03:23:00",14.0,13.4,0.0,0.0,0,1014.4,0,1,"",96
"2021-08-15 03:24:00",14.0,13.4,0.0,0.0,0,1014.4,0,1,"",96
"2021-08-15 03:25:00",14.0,13.4,0.0,0.0,0,1014.4,0,0,"",96
"2021-08-15 03:26:00",14.1,13.5,0.0,0.0,0,1014.5,0,0,"",96
"2021-08-15 03:27:00",14.1,13.5,0.0,0.0,0,1014.5,0,1,"",96
"2021-08-15 03:28:00",14.1,13.5,0.0,0.0,0,1014.4,0,1,"",96
"2021-08-15 03:29:00",14.1,13.5,0.0,0.0,0,1014.4,0,1,"",96
"2021-08-15 03:30:00",14.1,13.5,0.0,0.0,0,1014.4,0,0,"",96
"2021-08-15 03:31:00",14.1,13.5,0.0,0.0,0,1014.4,0,0,"",96
"2021-08-15 03:32:00",14.1,13.5,0.0,0.0,0,1014.4,0,0,"",96
"2021-08-15 03:33:00",14.1,13.5,0.0,0.0,0,1014.5,0,0,"",96
"2021-08-15 03:34:00",14.0,13.4,0.0,0.0,0,1014.4,0,0,"",96
"2021-08-15 03:35:00",14.1,13.5,0.0,0.0,0,1014.4,0,1,"",96
"2021-08-15 03:36:00",14.1,13.5,0.0,0.0,0,1014.4,0,0,"",96
"2021-08-15 03:37:00",14.0,13.4,0.0,0.0,0,1014.4,0,1,"",96
"2021-08-15 03:38:00",14.1,13.5,0.0,0.0,0,1014.4,0,0,"",96
"2021-08-15 03:39:00",14.0,13.4,0.0,0.0,0,1014.4,0,0,"",96
"2021-08-15 03:40:00",14.0,13.4,0.0,0.0,0,1014.4,0,1,"",96
"2021-08-15 03:41:00",14.0,13.4,0.0,0.0,0,1014.4,0,0,"",96
"2021-08-15 03:42:00",14.0,13.4,0.0,0.0,0,1014.4,0,0,"",96
"2021-08-15 03:43:00",14.0,13.4,0.0,0.0,0,1014.3,0,0,"",96
"2021-08-15 03:44:00",14.0,13.4,0.0,0.0,0,1014.3,0,1,"",96
"2021-08-15 03:45:00",14.0,13.4,0.0,0.0,0,1014.3,0,0,"",96
"2021-08-15 03:46:00",14.0,13.4,0.0,0.0,0,1014.3,0,0,"",96
"2021-08-15 03:47:00",14.0,13.4,0.0,0.0,0,1014.3,0,1,"",96
"2021-08-15 03:48:00",14.0,13.4,0.0,0.0,0,1014.3,0,1,"",96
"2021-08-15 03:49:00",13.9,13.3,0.0,0.0,0,1014.2,1,2,"",96
"2021-08-15 03:50:00",14.0,13.4,0.0,0.0,0,1014.3,0,1,"",96
"2021-08-15 03:51:00",14.0,13.4,0.0,0.0,0,1014.3,0,2,"",96
"2021-08-15 03:52:00",14.0,13.4,0.0,0.0,0,1014.2,0,0,"",96
"2021-08-15 03:53:00",14.0,13.4,0.0,0.0,0,1014.2,0,0,"",96
"2021-08-15 03:54:00",14.1,13.6,0.0,0.0,0,1014.2,0,0,"",97
"2021-08-15 03:55:00",14.1,13.6,0.0,0.0,0,1014.2,0,0,"",97
"2021-08-15 03:56:00",14.1,13.6,0.0,0.0,0,1014.2,0,1,"",97
"2021-08-15 03:57:00",14.1,13.6,0.0,0.0,0,1014.2,0,0,"",97
"2021-08-15 03:58:00",14.1,13.5,0.0,0.0,0,1014.2,0,0,"",96
"2021-08-15 03:59:00",14.1,13.5,0.0,0.0,0,1014.2,0,1,"",96
"2021-08-15 04:00:00",14.1,13.6,0.0,0.0,0,1014.2,0,0,"",97
"2021-08-15 04:01:00",14.1,13.5,0.0,0.0,0,1014.1,0,0,"",96
"2021-08-15 04:02:00",14.1,13.5,0.0,0.0,0,1014.2,0,0,"",96
"2021-08-15 04:03:00",14.1,13.5,0.0,0.0,0,1014.2,0,0,"",96
"2021-08-15 04:04:00",14.1,13.6,0.0,0.0,0,1014.1,0,0,"",97
"2021-08-15 04:05:00",14.1,13.6,0.0,0.0,0,1014.1,0,0,"",97
"2021-08-15 04:06:00",14.1,13.6,0.0,0.0,0,1014.1,0,2,"",97
"2021-08-15 04:07:00",14.2,13.7,0.0,0.0,0,1014.1,0,1,"",97
"2021-08-15 04:08:00",14.1,13.6,0.0,0.0,0,1014.0,1,2,"",97
"2021-08-15 04:09:00",14.1,13.6,0.0,0.0,0,1014.0,1,2,"",97
"2021-08-15 04:10:00",14.1,13.6,0.0,0.0,0,1014.1,0,1,"",97
"2021-08-15 04:11:00",14.2,13.7,0.0,0.0,0,1014.0,1,2,"",97
"2021-08-15 04:12:00",14.2,13.7,0.0,0.0,0,1014.0,1,2,"",97
"2021-08-15 04:13:00",14.2,13.7,0.0,0.0,0,1014.0,1,2,"",97
"2021-08-15 04:14:00",14.2,13.7,0.0,0.0,0,1013.9,1,2,"",97
"2021-08-15 04:15:00",14.2,13.7,0.0,0.0,0,1013.9,1,2,"",97
"2021-08-15 04:16:00",14.2,13.7,0.0,0.0,0,1013.9,1,2,"",97
"2021-08-15 04:17:00",14.2,13.7,0.0,0.0,0,1013.9,1,1,"",97
"2021-08-15 04:18:00",14.3,13.8,0.0,0.0,0,1013.9,0,1,"",97
"2021-08-15 04:19:00",14.3,13.8,0.0,0.0,0,1013.9,2,4,"",97
"2021-08-15 04:20:00",14.3,13.8,0.0,0.0,0,1013.9,0,1,"",97
"2021-08-15 04:21:00",14.3,13.8,0.0,0.0,0,1013.9,0,1,"",97
"2021-08-15 04:22:00",14.4,13.9,0.0,0.0,0,1013.8,0,0,"",97
"2021-08-15 04:23:00",14.4,13.9,0.0,0.0,0,1013.8,0,1,"",97
"2021-08-15 04:24:00",14.4,13.9,0.0,0.0,0,1013.8,0,2,"",97
"2021-08-15 04:25:00",14.4,13.9,0.0,0.0,0,1013.8,0,1,"",97
"2021-08-15 04:26:00",14.4,13.9,0.0,0.0,0,1013.8,1,1,"",97
"2021-08-15 04:27:00",14.4,13.9,0.0,0.0,0,1013.8,1,2,"",97
"2021-08-15 04:28:00",14.4,13.9,0.0,0.0,0,1013.7,1,2,"",97
"2021-08-15 04:29:00",14.4,13.9,0.0,0.0,0,1013.7,1,2,"",97
"2021-08-15 04:30:00",14.4,13.9,0.0,0.0,0,1013.7,0,1,"",97
"2021-08-15 04:31:00",14.4,13.9,0.0,0.0,0,1013.7,1,2,"",97
"2021-08-15 04:32:00",14.4,13.9,0.0,0.0,0,1013.7,0,1,"",97
"2021-08-15 04:33:00",14.4,13.9,0.0,0.0,0,1013.7,1,1,"",97
"2021-08-15 04:34:00",14.4,13.9,0.0,0.0,0,1013.7,0,1,"",97
"2021-08-15 04:35:00",14.4,13.9,0.0,0.0,0,1013.6,1,1,"",97
"2021-08-15 04:36:00",14.4,13.9,0.0,0.0,0,1013.6,1,2,"",97
"2021-08-15 04:37:00",14.4,13.9,0.0,0.0,0,1013.6,1,2,"",97
"2021-08-15 04:38:00",14.4,13.9,0.0,0.0,0,1013.6,1,2,"",97
"2021-08-15 04:39:00",14.4,13.9,0.0,0.0,0,1013.6,0,1,"",97
"2021-08-15 04:40:00",14.4,13.9,0.0,0.0,0,1013.6,1,1,"",97
"2021-08-15 04:41:00",14.4,13.9,0.0,0.0,0,1013.6,0,0,"",97
"2021-08-15 04:42:00",14.4,13.9,0.0,0.0,0,1013.6,1,2,"",97
"2021-08-15 04:43:00",14.4,13.9,0.0,0.0,0,1013.6,0,1,"",97
"2021-08-15 04:44:00",14.4,13.9,0.0,0.0,0,1013.6,0,1,"",97
"2021-08-15 04:45:00",14.4,13.9,0.0,0.0,0,1013.6,0,1,"",97
"2021-08-15 04:46:00",14.4,13.9,0.0,0.0,0,1013.6,0,1,"",97
"2021-08-15 04:47:00",14.4,13.9,0.0,0.0,0,1013.6,0,0,"",97
"2021-08-15 04:48:00",14.4,13.9,0.0,0.0,0,1013.6,0,1,"",97
"2021-08-15 04:49:00",14.3,13.8,0.0,0.0,0,1013.6,1,2,"",97
"2021-08-15 04:50:00",14.3,13.8,0.0,0.0,0,1013.6,0,1,"",97
"2021-08-15 04:51:00",14.3,13.8,0.0,0.0,0,1013.6,0,1,"",97
"2021-08-15 04:52:00",14.3,13.8,0.0,0.0,0,1013.6,0,1,"",97
"2021-08-15 04:53:00",14.3,13.8,0.0,0.0,0,1013.6,0,1,"",97
"2021-08-15 04:54:00",14.3,13.8,0.0,0.0,0,1013.6,0,1,"",97
"2021-08-15 04:55:00",14.2,13.7,0.0,0.0,0,1013.5,1,2,"",97
"2021-08-15 04:56:00",14.2,13.7,0.0,0.0,0,1013.6,1,2,"",97
"2021-08-15 04:57:00",14.2,13.7,0.0,0.0,0,1013.5,1,3,"",97
"2021-08-15 04:58:00",14.1,13.6,0.0,0.0,0,1013.6,0,1,"",97
"2021-08-15 04:59:00",14.2,13.7,0.0,0.0,0,1013.6,0,1,"",97
"2021-08-15 05:00:00",14.1,13.6,0.0,0.0,0,1013.6,0,1,"",97
"2021-08-15 05:01:00",14.2,13.7,0.0,0.0,0,1013.5,0,1,"",97
"2021-08-15 05:02:00",14.2,13.7,0.0,0.0,0,1013.5,0,1,"",97
"2021-08-15 05:03:00",14.2,13.7,0.0,0.0,0,1013.5,1,2,"",97
"2021-08-15 05:04:00",14.1,13.6,0.0,0.0,0,1013.5,1,3,"",97
"2021-08-15 05:05:00",14.2,13.7,0.0,0.0,0,1013.5,0,1,"",97
"2021-08-15 05:06:00",14.2,13.7,0.0,0.0,0,1013.6,0,2,"",97
"2021-08-15 05:07:00",14.2,13.7,0.0,0.0,0,1013.5,0,1,"",97
"2021-08-15 05:08:00",14.2,13.7,0.0,0.0,0,1013.5,1,2,"",97
"2021-08-15 05:09:00",14.2,13.7,0.0,0.0,0,1013.5,0,1,"",97
"2021-08-15 05:10:00",14.2,13.7,0.0,0.0,0,1013.5,0,0,"",97
"2021-08-15 05:11:00",14.2,13.7,0.0,0.0,0,1013.5,0,0,"",97
"2021-08-15 05:12:00",14.2,13.7,0.0,0.0,0,1013.6,0,1,"",97
"2021-08-15 05:13:00",14.2,13.7,0.0,0.0,0,1013.5,0,1,"",97
"2021-08-15 05:14:00",14.3,13.8,0.0,0.0,0,1013.6,1,2,"",97
"2021-08-15 05:15:00",14.3,13.8,0.0,0.0,0,1013.5,0,1,"",97
"2021-08-15 05:16:00",14.3,13.8,0.0,0.0,0,1013.5,0,0,"",97
"2021-08-15 05:17:00",14.3,13.8,0.0,0.0,0,1013.5,1,1,"",97
"2021-08-15 05:18:00",14.3,13.8,0.0,0.0,0,1013.5,0,2,"",97
"2021-08-15 05:19:00",14.4,13.9,0.0,0.0,0,1013.5,1,2,"",97
"2021-08-15 05:20:00",14.4,13.9,0.0,0.0,0,1013.5,0,1,"",97
"2021-08-15 05:21:00",14.4,13.9,0.0,0.0,0,1013.5,1,2,"",97
"2021-08-15 05:22:00",14.4,13.9,0.0,0.0,0,1013.5,0,1,"",97
"2021-08-15 05:23:00",14.4,13.9,0.0,0.0,0,1013.5,0,1,"",97
"2021-08-15 05:24:00",14.4,13.9,0.0,0.0,0,1013.5,0,1,"",97
"2021-08-15 05:25:00",14.4,13.9,0.0,0.0,0,1013.5,0,1,"",97
"2021-08-15 05:26:00",14.4,13.9,0.0,0.0,0,1013.5,0,1,"",97
"2021-08-15 05:27:00",14.4,13.9,0.0,0.0,0,1013.5,0,1,"",97
"2021-08-15 05:28:00",14.4,13.9,0.0,0.0,0,1013.5,0,2,"",97
"2021-08-15 05:29:00",14.4,13.9,0.0,0.0,0,1013.5,1,4,"",97
"2021-08-15 05:30:00",14.4,13.9,0.0,0.0,0,1013.4,1,1,"",97
"2021-08-15 05:31:00",14.4,13.9,0.0,0.0,0,1013.4,0,1,"",97
"2021-08-15 05:32:00",14.4,13.9,0.0,0.0,0,1013.5,0,1,"",97
"2021-08-15 05:33:00",14.4,13.9,0.0,0.0,0,1013.4,1,2,"",97
"2021-08-15 05:34:00",14.4,13.9,0.0,0.0,0,1013.4,1,3,"",97
"2021-08-15 05:35:00",14.4,13.9,0.0,0.0,0,1013.4,1,2,"",97
"2021-08-15 05:36:00",14.3,13.8,0.0,0.0,0,1013.4,1,2,"",97
"2021-08-15 05:37:00",14.3,13.8,0.0,0.0,0,1013.4,2,8,"",97
"2021-08-15 05:38:00",14.3,13.8,0.0,0.0,0,1013.4,1,3,"",97
"2021-08-15 05:39:00",14.3,13.8,0.0,0.0,0,1013.4,1,2,"",97
"2021-08-15 05:40:00",14.3,13.8,0.0,0.0,0,1013.4,2,5,"",97
"2021-08-15 05:41:00",14.3,13.8,0.0,0.0,0,1013.3,1,2,"",97
"2021-08-15 05:42:00",14.3,13.8,0.0,0.0,0,1013.4,2,3,"",97
"2021-08-15 05:43:00",14.2,13.7,0.0,0.0,0,1013.4,2,4,"",97
"2021-08-15 05:44:00",14.2,13.7,0.0,0.0,0,1013.4,2,3,"",97
"2021-08-15 05:45:00",14.2,13.7,0.0,0.0,0,1013.4,1,2,"",97
"2021-08-15 05:46:00",14.2,13.7,0.0,0.0,0,1013.3,1,2,"",97
"2021-08-15 05:47:00",14.2,13.7,0.0,0.0,0,1013.3,1,2,"",97
"2021-08-15 05:48:00",14.3,13.8,0.0,0.0,0,1013.3,1,2,"",97
"2021-08-15 05:49:00",14.3,13.8,0.0,0.0,0,1013.4,1,2,"",97
"2021-08-15 05:50:00",14.3,13.8,0.0,0.0,0,1013.4,1,2,"",97
"2021-08-15 05:51:00",14.3,13.8,0.0,0.0,0,1013.5,1,2,"",97
"2021-08-15 05:52:00",14.3,13.8,0.0,0.0,0,1013.4,1,2,"",97
"2021-08-15 05:53:00",14.3,13.8,0.0,0.0,0,1013.4,1,2,"",97
"2021-08-15 05:54:00",14.3,13.8,0.0,0.0,0,1013.4,1,2,"",97
"2021-08-15 05:55:00",14.3,13.8,0.0,0.0,0,1013.4,1,2,"",97
"2021-08-15 05:56:00",14.3,13.8,0.0,0.0,5,1013.4,1,2,"",97
"2021-08-15 05:57:00",14.3,13.8,0.0,0.0,5,1013.4,0,1,"",97
"2021-08-15 05:58:00",14.3,13.8,0.0,0.0,5,1013.5,1,2,"",97
"2021-08-15 05:59:00",14.3,13.8,0.0,0.0,5,1013.5,1,2,"",97
"2021-08-15 06:00:00",14.4,13.9,0.0,0.0,5,1013.5,1,2,"",97
"2021-08-15 06:01:00",14.4,13.9,0.0,0.0,5,1013.5,1,2,"",97
"2021-08-15 06:02:00",14.4,13.9,0.0,0.0,5,1013.5,1,2,"",97
"2021-08-15 06:03:00",14.4,13.9,0.0,0.0,5,1013.5,1,2,"",97
"2021-08-15 06:04:00",14.4,13.9,0.0,0.0,7,1013.5,0,1,"",97
"2021-08-15 06:05:00",14.5,14.0,0.0,0.0,9,1013.5,1,2,"",97
"2021-08-15 06:06:00",14.5,14.0,0.0,0.0,7,1013.6,2,4,"",97
"2021-08-15 06:07:00",14.6,14.1,0.0,0.0,7,1013.5,1,2,"",97
"2021-08-15 06:08:00",14.6,14.1,0.0,0.0,7,1013.5,1,2,"",97
"2021-08-15 06:09:00",14.7,14.2,0.0,0.0,7,1013.5,1,3,"",97
"2021-08-15 06:10:00",14.7,14.2,0.0,0.0,9,1013.5,1,3,"",97
"2021-08-15 06:11:00",14.7,14.2,0.0,0.0,9,1013.5,1,2,"",97
"2021-08-15 06:12:00",14.8,14.3,0.0,0.0,7,1013.5,1,3,"",97
"2021-08-15 06:13:00",14.8,14.3,0.0,0.0,9,1013.5,1,2,"",97
"2021-08-15 06:14:00",14.9,14.4,0.0,0.0,9,1013.5,1,2,"",97
"2021-08-15 06:15:00",14.9,14.4,0.0,0.0,11,1013.5,1,2,"",97
"2021-08-15 06:16:00",14.9,14.4,0.0,0.0,12,1013.5,1,2,"",97
"2021-08-15 06:17:00",14.9,14.4,0.0,0.0,14,1013.5,1,1,"",97
"2021-08-15 06:18:00",15.0,14.5,0.0,0.0,14,1013.5,1,1,"",97
"2021-08-15 06:19:00",14.9,14.4,0.0,0.0,14,1013.5,1,2,"",97
"2021-08-15 06:20:00",14.9,14.4,0.0,0.0,14,1013.5,1,3,"",97
"2021-08-15 06:21:00",15.0,14.5,0.0,0.0,14,1013.5,0,1,"",97
"2021-08-15 06:22:00",15.0,14.5,0.0,0.0,14,1013.5,0,1,"",97
"2021-08-15 06:23:00",15.1,14.5,0.0,0.0,14,1013.5,0,1,"",96
"2021-08-15 06:24:00",15.1,14.5,0.0,0.0,14,1013.5,0,1,"",96
"2021-08-15 06:25:00",15.1,14.5,0.0,0.0,14,1013.5,0,2,"",96
"2021-08-15 06:26:00",15.1,14.5,0.0,0.0,14,1013.5,0,1,"",96
"2021-08-15 06:27:00",15.1,14.5,0.0,0.0,14,1013.5,0,1,"",96
"2021-08-15 06:28:00",15.1,14.5,0.0,0.0,14,1013.5,1,2,"",96
"2021-08-15 06:29:00",15.1,14.5,0.0,0.0,14,1013.5,0,1,"",96
"2021-08-15 06:30:00",15.1,14.5,0.0,0.0,14,1013.5,0,2,"",96
"2021-08-15 06:31:00",15.2,14.6,0.0,0.0,16,1013.5,1,2,"",96
"2021-08-15 06:32:00",15.2,14.7,0.0,0.0,16,1013.5,1,1,"",97
"2021-08-15 06:33:00",15.2,14.7,0.0,0.0,18,1013.5,0,2,"",97
"2021-08-15 06:34:00",15.2,14.7,0.0,0.0,18,1013.5,0,1,"",97
"2021-08-15 06:35:00",15.3,14.7,0.0,0.0,18,1013.5,0,1,"",96
"2021-08-15 06:36:00",15.3,14.8,0.0,0.0,19,1013.5,0,2,"",97
"2021-08-15 06:37:00",15.3,14.7,0.0,0.0,16,1013.5,0,1,"",96
"2021-08-15 06:38:00",15.3,14.7,0.0,0.0,19,1013.5,0,1,"",96
"2021-08-15 06:39:00",15.4,14.8,0.0,0.0,21,1013.5,0,1,"",96
"2021-08-15 06:40:00",15.4,14.8,0.0,0.0,21,1013.5,0,1,"",96
"2021-08-15 06:41:00",15.4,14.8,0.0,0.0,21,1013.5,0,1,"",96
"2021-08-15 06:42:00",15.4,14.8,0.0,0.0,23,1013.5,0,1,"",96
"2021-08-15 06:43:00",15.4,14.8,0.0,0.0,25,1013.5,1,2,"",96